DW3777 Weather Reports


Display with metric or nautical units.
time (UTC)temp
F
wind
direction
speed
MPH
gust
MPH
rain 1hr
in
rain 24hr
in
rain mn
in
humidity
%
barometer
mb
20260506190008 35 294 2.0 4.0 0.00 0.03 0.03 77 1008.5
20260506184506 35 284 3.0 4.0 0.00 0.03 0.03 77 1008.5
20260506183006 35 247 2.0 4.0 0.00 0.03 0.03 77 1008.5
20260506181506 36 276 3.0 5.0 0.00 0.03 0.03 76 1008.3
20260506180008 36 272 4.0 7.0 0.00 0.03 0.03 74 1008.3
20260506174503 36 261 3.0 5.0 0.00 0.03 0.03 74 1008.3
20260506173003 36 260 4.0 9.0 0.00 0.03 0.03 72 1008.3
20260506171505 36 256 5.0 9.0 0.00 0.03 0.03 71 1008.3
20260506170001 37 241 6.0 10.0 0.00 0.03 0.03 72 1008.3
20260506164600 37 257 4.0 8.0 0.00 0.03 0.03 71 1008.2
20260506163059 37 229 5.0 11.0 0.00 0.03 0.03 68 1008.2
20260506161606 37 252 6.0 9.0 0.00 0.03 0.03 67 1008.2
20260506160058 37 138 2.0 6.0 0.00 0.03 0.03 76 1008.0
20260506154557 37 111 2.0 6.0 0.00 0.03 0.03 76 1008.0
20260506153055 37 128 1.0 6.0 0.00 0.03 0.03 76 1008.0
20260506151606 37 134 2.0 7.0 0.00 0.03 0.03 75 1007.9
20260506150054 37 141 2.0 10.0 0.00 0.03 0.03 73 1007.9
20260506144552 38 192 4.0 9.0 0.00 0.03 0.03 69 1007.7
20260506143055 38 37 3.0 9.0 0.00 0.03 0.03 63 1007.6
20260506141550 38 331 3.0 10.0 0.00 0.03 0.03 63 1007.6
20260506140059 39 321 6.0 13.0 0.00 0.03 0.03 62 1007.6
20260506134546 39 309 4.0 9.0 0.00 0.03 0.03 62 1007.4
20260506133047 39 311 4.0 10.0 0.00 0.03 0.03 66 1007.5
20260506131542 38 17 6.0 12.0 0.00 0.03 0.03 69 1007.4
20260506130048 38 314 6.0 14.0 0.00 0.03 0.03 69 1007.3
20260506124539 39 345 6.0 12.0 0.00 0.03 0.03 69 1007.2
20260506123037 38 347 5.0 12.0 0.00 0.03 0.03 69 1007.1
20260506121536 38 28 5.0 12.0 0.00 0.03 0.03 70 1007.1
20260506120034 38 42 8.0 12.0 0.00 0.03 0.03 69 1007.0
20260506114540 38 323 6.0 13.0 0.00 0.03 0.03 70 1006.8
20260506113030 38 320 3.0 10.0 0.00 0.03 0.03 72 1006.7
20260506111527 38 13 6.0 12.0 0.00 0.03 0.03 71 1006.6
20260506110025 38 355 7.0 12.0 0.00 0.03 0.03 72 1006.5
20260506104522 38 360 6.0 12.0 0.00 0.03 0.03 74 1006.4
20260506103021 38 34 5.0 10.0 0.00 0.03 0.03 75 1006.3
20260506101532 38 360 4.0 10.0 0.00 0.03 0.03 75 1006.2
20260506100015 38 15 5.0 10.0 0.00 0.03 0.03 75 1006.1
20260506094516 38 355 6.0 10.0 0.00 0.03 0.03 76 1006.1
20260506093011 37 17 5.0 11.0 0.00 0.03 0.03 76 1006.0
20260506091509 38 22 5.0 11.0 0.00 0.03 0.03 75 1005.9
20260506090008 37 40 4.0 13.0 0.00 0.03 0.03 73 1005.8
20260506084512 37 36 7.0 12.0 0.00 0.03 0.03 66 1005.7
20260506083002 37 16 5.0 10.0 0.00 0.03 0.03 68 1005.5
20260506081602 37 34 5.0 10.0 0.00 0.03 0.03 68 1005.4
20260506073100 37 27 3.0 9.0 0.01 0.03 0.03 76 1005.0
20260506071607 37 273 5.0 10.0 0.01 0.03 0.03 76 1004.9
20260506061542 35 355 4.0 9.0 0.02 0.02 0.02 84 1004.4
20260506044526 0 0.0 0.0 0.00 0.01 0.01 1003.9
20260506043024 0 0.0 0.0 0.01 0.01 0.01 1003.8
20260506041526 0 0.0 0.0 0.01 0.01 0.01 1003.7
20260506040016 34 251 0.0 1.0 0.01 0.01 0.01 88 1003.6
20260506034514 34 251 0.0 2.0 0.01 0.01 0.01 88 1003.5
20260506033014 33 251 0.0 3.0 0.00 0.00 0.00 88 1003.4
20260506031516 33 259 2.0 4.0 0.00 0.00 0.00 89 1003.4
20260506030011 33 244 3.0 4.0 0.00 0.00 0.00 89 1003.3
20260506024507 33 251 2.0 3.0 0.00 0.00 0.00 88 1003.1
20260506023005 33 281 2.0 3.0 0.00 0.00 0.00 88 1003.1
20260506021506 33 278 2.0 3.0 0.00 0.00 0.00 89 1003.0
20260506020002 33 278 0.0 1.0 0.00 0.00 0.00 89 1002.9
20260506014600 0 0.0 0.0 0.00 0.00 0.00 1002.9
20260506013054 0 0.0 0.0 0.00 0.00 0.00 1002.7
20260506011550 0 0.0 0.0 0.00 0.00 0.00 1002.6
20260506010048 0 0.0 0.0 0.00 0.00 0.00 1002.6
20260506004544 0 0.0 0.0 0.00 0.00 0.00 1002.5
20260506003037 0 0.0 0.0 0.00 0.00 0.00 1002.4
20260506001542 0 0.0 0.0 0.00 0.00 0.00 1002.4
20260506000036 0 0.0 0.0 0.00 0.00 0.00 1002.4
20260505234524 0 0.0 0.0 0.00 0.00 0.00 1002.2
20260505233019 0 0.0 0.0 0.00 0.00 0.00 1002.2
20260505231515 0 0.0 0.0 0.00 0.00 0.00 1002.1
20260505230015 0 0.0 0.0 0.00 0.00 0.00 1002.2
20260505224507 0 0.0 0.0 0.00 0.00 0.00 1002.1
20260505223008 32 167 3.0 3.0 0.00 0.00 0.00 92 1002.1
20260505221502 0 0.0 0.0 0.00 0.00 0.00 1001.9
20260505220100 32 76 1.0 5.0 0.00 0.00 0.00 90 1001.9
20260505214606 33 29 4.0 12.0 0.00 0.00 0.00 89 1001.7
20260505213059 34 71 1.0 5.0 0.00 0.00 0.00 85 1001.6
20260505211606 35 92 1.0 6.0 0.00 0.00 0.00 84 1001.5
20260505210104 35 17 3.0 9.0 0.00 0.00 0.00 83 1001.4
20260505204553 36 319 4.0 10.0 0.00 0.00 0.00 82 1001.4
20260505203052 36 9 5.0 13.0 0.00 0.00 0.00 82 1001.2
20260505201554 36 9 6.0 11.0 0.00 0.00 0.00 81 1001.2
20260505200050 36 339 3.0 9.0 0.00 0.00 0.00 79 1001.1
20260505194548 36 314 3.0 9.0 0.00 0.00 0.00 78 1001.0
20260505193050 36 13 4.0 9.0 0.00 0.00 0.00 79 1001.0
20260505191552 36 18 3.0 9.0 0.00 0.00 0.00 79 1000.9